Location: Colonia Mina de C?rbuni
(46.1667°N, 22.7167°E)
Time: 10:27:52
(UTC+00:00)

SL-16 R/B - Visible Passes

Search period start: 28 September 2023 00:00
Search period end: 08 October 2023 00:00
Orbit: 841 x 846 km, 71.0° (Epoch: 28 September)

Date Brightness Start Highest point End Pass type
(mag) Time Alt. Az. Time Alt. Az. Time Alt. Az.
28 Sep 4.1 01:09:16 10° NNW 01:10:43 19° NNW 01:10:43 19° NNW visible
28 Sep 4.8 17:50:15 10° W 17:53:57 17° NW 17:57:40 10° N visible
28 Sep 4.8 23:11:46 10° N 23:13:29 15° NNE 23:13:29 15° NNE visible
29 Sep 4.6 00:54:49 10° NNW 00:55:15 12° NNW 00:55:15 12° NNW visible
29 Sep 4.8 17:35:41 10° W 17:39:28 18° NW 17:43:16 10° N visible
29 Sep 5.0 22:57:23 10° N 22:58:24 13° N 22:58:24 13° N visible
30 Sep 4.8 17:21:07 10° W 17:24:59 18° NW 17:28:52 10° N visible
30 Sep 5.1 22:42:59 10° N 22:43:31 11° N 22:43:31 11° N visible
01 Oct 4.7 17:06:33 10° W 17:10:30 19° NW 17:14:29 10° N visible
01 Oct 5.1 22:28:36 10° N 22:28:48 11° N 22:28:48 11° N visible
02 Oct 4.7 16:51:59 10° W 16:56:02 19° NW 17:00:05 10° N visible
03 Oct 4.7 16:37:26 10° W 16:41:33 20° NW 16:45:41 10° N visible
